{"data":{"norad_id":39617,"epoch":"2026-09-19T23:55:33.805056Z","epoch_age_seconds":57727,"freshness":"FRESH","line1":"1 39617U 14011B   26262.99691904  .00000133  00000+0  00000+0 0  9993","line2":"2 39617   0.0876 299.4146 0002988 257.0855 184.7878  1.00273446 45619","mean_motion":1.00273446,"eccentricity":0.0002988,"inclination_deg":0.0876,"raan_deg":299.4146,"arg_perigee_deg":257.0855,"mean_anomaly_deg":184.7878,"bstar":0,"rev_number":4561,"period_min":1436.0731155086,"perigee_km":35773.530646243,"apogee_km":35798.728011801,"semimajor_km":42164.266329022,"source":"CELESTRAK","updated_at":"2026-09-20T09:00:46.834805Z"}}